Home > Weather > Atlanta > Past weeks

Flag for U.S.A. Weather for the Past 2 Weeks in Atlanta, Georgia, U.S.A.

Now
44 °F

Clear.


Feels Like: 44 °F
Forecast: 32 / 54 °F
Wind: No wind

Location: Fulton County Airport-Brown Field

Current Time: Feb 6, 2016 at 8:57:41 PM

Latest Report: Feb 6, 2016 at 7:53 PM


Visibility: 10 mi

Pressure: 30.25 "Hg

Humidity: 37%

Dew point: 19 °F

Location of AtlantaLocation

Historic Weather in Atlanta — Graph

°F

Atlanta Temperature Yesterday

Maximum temperature yesterday: 49 °F (at 2:53 PM)
Minimum temperature yesterday: 30 °F (at 7:53 AM)
Average temperature yesterday: 39 °F

High & Low Weather Summary for the Past Weeks

 TemperatureHumidityPressure
High76 °F (Feb 2, 3:53 PM)100% (Jan 25, 2:53 AM)30.43 "Hg (Jan 25, 2:53 AM)
Low17 °F (Jan 29, 4:53 AM)21% (Feb 5, 2:53 PM)29.66 "Hg (Jan 22, 6:53 PM)
Average45 °F68%30.08 "Hg
* Reported Jan 22 6:53 PM — Feb 6 6:53 PM, Atlanta, Weather by CustomWeather, © 2016

Note: Actual official high and low records may vary slightly from our data, if they occured in-between our weather recording intervals... More about our weather records

Advertising

Atlanta Weather History for the Previous 24 Hours

 ConditionsComfort  
Time TempWeatherWind HumidityBarometerVisibility
6:53 PM
Sat, Feb 6
46 °FPassing clouds.3 mph31%30.25 "Hg10 mi
5:53 PM49 °FPartly sunny.3 mph28%30.25 "Hg10 mi
4:53 PM50 °FPartly sunny.6 mph26%30.25 "Hg10 mi
3:53 PM50 °FSunny.6 mph24%30.25 "Hg10 mi
2:53 PM51 °FSunny.8 mph24%30.27 "Hg10 mi
1:53 PM50 °FSunny.9 mph27%30.29 "Hg10 mi
12:53 PM48 °FSunny.3 mph28%30.34 "Hg10 mi
11:53 AM47 °FSunny.9 mph32%30.37 "Hg10 mi
10:53 AM43 °FSunny.3 mph37%30.40 "Hg10 mi
9:53 AM40 °FSunny.6 mph51%30.40 "Hg10 mi
8:53 AM35 °FSunny.7 mph61%30.40 "Hg10 mi
7:53 AM27 °FSunny.3 mph85%30.40 "Hg10 mi
6:53 AM26 °FClear.No wind84%30.37 "Hg10 mi
5:53 AM27 °FClear.No wind85%30.36 "Hg10 mi
4:53 AM27 °FClear.No wind89%30.34 "Hg10 mi
3:53 AM28 °FClear.No wind85%30.36 "Hg10 mi
2:53 AM30 °FClear.No wind79%30.38 "Hg10 mi
1:53 AM30 °FClear.No wind79%30.38 "Hg10 mi
12:53 AM31 °FClear.No wind76%30.38 "Hg10 mi
11:53 PM
Fri, Feb 5
31 °FClear.No wind76%30.38 "Hg10 mi
10:53 PM34 °FClear.No wind56%30.37 "Hg10 mi
9:53 PM37 °FClear.No wind42%30.38 "Hg10 mi
8:53 PM40 °FClear.No wind36%30.38 "Hg10 mi
Weather by CustomWeather, © 2016

See weather overviewHow to use our weather pages